Time,TemperatureF,DewpointF,PressureIn,WindDirection,WindDirectionDegrees,WindSpeedMPH,WindSpeedGustMPH,Humidity,HourlyPrecipIn,Conditions,Clouds,dailyrainin,SoftwareType,DateUTC
2013-06-19 00:07:00,53.6,50.7,29.77,ESE,112,0.0,-999.0,90,-99.99,,,0.00,Acu-Link.com,2013-06-19 07:07:00,
2013-06-19 00:22:00,53.6,50.7,29.77,SE,135,0.0,-999.0,90,-99.99,,,0.00,Acu-Link.com,2013-06-19 07:22:00,
2013-06-19 00:37:00,53.6,53.0,29.77,ESE,112,0.0,-999.0,98,-99.99,,,0.00,Acu-Link.com,2013-06-19 07:37:00,
2013-06-19 00:52:00,51.8,51.3,29.77,NNW,337,0.0,-999.0,98,-99.99,,,0.00,Acu-Link.com,2013-06-19 07:52:00,
2013-06-19 01:07:00,51.8,51.3,29.77,East,90,0.0,-999.0,98,-99.99,,,0.00,Acu-Link.com,2013-06-19 08:07:00,
2013-06-19 01:23:00,51.8,51.3,29.77,ESE,112,0.0,-999.0,98,-99.99,,,0.00,Acu-Link.com,2013-06-19 08:23:00,
2013-06-19 01:38:00,51.8,51.3,29.76,NW,315,1.6,-999.0,98,-99.99,,,0.00,Acu-Link.com,2013-06-19 08:38:00,
2013-06-19 01:53:00,51.8,51.3,29.76,ESE,112,2.0,-999.0,98,-99.99,,,0.00,Acu-Link.com,2013-06-19 08:53:00,
2013-06-19 02:08:00,51.8,51.3,29.77,East,90,0.0,-999.0,98,-99.99,,,0.00,Acu-Link.com,2013-06-19 09:08:00,
2013-06-19 02:23:00,51.8,51.3,29.77,NNW,337,0.0,-999.0,98,-99.99,,,0.00,Acu-Link.com,2013-06-19 09:23:00,
2013-06-19 02:38:00,51.8,49.3,29.77,SE,135,0.0,-999.0,91,-99.99,,,0.00,Acu-Link.com,2013-06-19 09:38:00,
2013-06-19 02:53:00,51.8,49.3,29.76,West,270,0.0,-999.0,91,-99.99,,,0.00,Acu-Link.com,2013-06-19 09:53:00,
2013-06-19 03:09:00,51.8,49.6,29.76,NE,45,0.0,-999.0,92,-99.99,,,0.00,Acu-Link.com,2013-06-19 10:09:00,
2013-06-19 03:24:00,51.8,50.1,29.75,SW,225,3.1,-999.0,94,-99.99,,,0.00,Acu-Link.com,2013-06-19 10:24:00,
2013-06-19 03:39:00,51.8,49.3,29.74,SSE,157,2.0,-999.0,91,-99.99,,,0.00,Acu-Link.com,2013-06-19 10:39:00,
2013-06-19 03:54:00,51.8,51.3,29.75,WNW,292,1.6,-999.0,98,-99.99,,,0.00,Acu-Link.com,2013-06-19 10:54:00,
2013-06-19 04:09:00,51.8,51.3,29.74,NNW,337,1.6,-999.0,98,-99.99,,,0.00,Acu-Link.com,2013-06-19 11:09:00,
2013-06-19 04:25:00,50.0,49.5,29.74,ESE,112,0.0,-999.0,98,-99.99,,,0.01,Acu-Link.com,2013-06-19 11:25:00,
2013-06-19 04:40:00,50.0,49.5,29.75,ESE,112,0.0,-999.0,98,-99.99,,,0.04,Acu-Link.com,2013-06-19 11:40:00,
2013-06-19 04:55:00,50.0,49.5,29.75,South,180,2.0,-999.0,98,-99.99,,,0.04,Acu-Link.com,2013-06-19 11:55:00,
2013-06-19 05:10:00,50.0,49.5,29.76,SE,135,0.0,-999.0,98,-99.99,,,0.04,Acu-Link.com,2013-06-19 12:10:00,
2013-06-19 05:25:00,50.0,49.5,29.77,SE,135,0.0,-999.0,98,-99.99,,,0.04,Acu-Link.com,2013-06-19 12:25:00,
2013-06-19 05:40:00,50.0,49.5,29.76,SSW,202,0.0,-999.0,98,-99.99,,,0.04,Acu-Link.com,2013-06-19 12:40:00,
2013-06-19 05:56:00,50.0,49.5,29.76,North,0,0.0,-999.0,98,-99.99,,,0.04,Acu-Link.com,2013-06-19 12:56:00,
2013-06-19 06:11:00,50.0,49.5,29.76,NE,45,1.6,-999.0,98,-99.99,,,0.04,Acu-Link.com,2013-06-19 13:11:00,
2013-06-19 06:26:00,50.0,49.5,29.75,West,270,1.1,-999.0,98,-99.99,,,0.04,Acu-Link.com,2013-06-19 13:26:00,
2013-06-19 06:41:00,50.0,49.5,29.74,ESE,112,1.6,-999.0,98,-99.99,,,0.04,Acu-Link.com,2013-06-19 13:41:00,
2013-06-19 06:57:00,50.0,49.5,29.75,South,180,0.0,-999.0,98,-99.99,,,0.04,Acu-Link.com,2013-06-19 13:57:00,
2013-06-19 07:12:00,50.0,49.5,29.74,ENE,67,0.0,-999.0,98,-99.99,,,0.04,Acu-Link.com,2013-06-19 14:12:00,
2013-06-19 07:27:00,50.0,49.5,29.74,WNW,292,0.0,-999.0,98,-99.99,,,0.04,Acu-Link.com,2013-06-19 14:27:00,
2013-06-19 07:42:00,50.0,49.5,29.74,NNW,337,0.0,-999.0,98,-99.99,,,0.04,Acu-Link.com,2013-06-19 14:42:00,
2013-06-19 07:57:00,50.0,49.5,29.74,NNW,337,2.0,-999.0,98,-99.99,,,0.04,Acu-Link.com,2013-06-19 14:57:00,
2013-06-19 08:12:00,50.0,49.5,29.74,West,270,1.1,-999.0,98,-99.99,,,0.04,Acu-Link.com,2013-06-19 15:12:00,
2013-06-19 08:27:00,50.0,49.5,29.74,West,270,2.0,-999.0,98,-99.99,,,0.04,Acu-Link.com,2013-06-19 15:27:00,
2013-06-19 08:42:00,50.0,49.5,29.73,SSE,157,0.0,-999.0,98,-99.99,,,0.04,Acu-Link.com,2013-06-19 15:42:00,
2013-06-19 08:57:00,50.0,49.5,29.73,SSE,157,4.0,-999.0,98,-99.99,,,0.04,Acu-Link.com,2013-06-19 15:57:00,
2013-06-19 09:13:00,50.0,49.5,29.74,SSE,157,2.0,-999.0,98,-99.99,,,0.04,Acu-Link.com,2013-06-19 16:13:00,
2013-06-19 09:28:00,51.8,51.3,29.73,South,180,0.0,-999.0,98,-99.99,,,0.04,Acu-Link.com,2013-06-19 16:28:00,
2013-06-19 09:43:00,51.8,51.3,29.73,SSE,157,0.0,-999.0,98,-99.99,,,0.04,Acu-Link.com,2013-06-19 16:43:00,
2013-06-19 09:58:00,51.8,51.3,29.72,NW,315,0.0,-999.0,98,-99.99,,,0.04,Acu-Link.com,2013-06-19 16:58:00,
2013-06-19 10:13:00,51.8,51.3,29.72,SW,225,0.0,-999.0,98,-99.99,,,0.04,Acu-Link.com,2013-06-19 17:13:00,
2013-06-19 10:28:00,51.8,49.0,29.72,WSW,247,1.6,-999.0,90,-99.99,,,0.04,Acu-Link.com,2013-06-19 17:28:00,
2013-06-19 10:43:00,51.8,49.3,29.71,NW,315,2.7,-999.0,91,-99.99,,,0.04,Acu-Link.com,2013-06-19 17:43:00,
2013-06-19 10:58:00,51.8,49.3,29.71,WNW,292,2.7,-999.0,91,-99.99,,,0.04,Acu-Link.com,2013-06-19 17:58:00,
2013-06-19 11:13:00,51.8,49.3,29.72,NE,45,0.0,-999.0,91,-99.99,,,0.04,Acu-Link.com,2013-06-19 18:13:00,
2013-06-19 11:29:00,51.8,49.8,29.71,North,0,2.7,-999.0,93,-99.99,,,0.05,Acu-Link.com,2013-06-19 18:29:00,
2013-06-19 11:44:00,51.8,51.3,29.72,WNW,292,0.0,-999.0,98,-99.99,,,0.05,Acu-Link.com,2013-06-19 18:44:00,
2013-06-19 11:59:00,51.8,51.3,29.71,ESE,112,0.0,-999.0,98,-99.99,,,0.06,Acu-Link.com,2013-06-19 18:59:00,
2013-06-19 12:14:00,51.8,51.3,29.72,WSW,247,3.6,-999.0,98,-99.99,,,0.11,Acu-Link.com,2013-06-19 19:14:00,
2013-06-19 12:30:00,51.8,51.3,29.72,ESE,112,1.6,-999.0,98,-99.99,,,0.19,Acu-Link.com,2013-06-19 19:30:00,
2013-06-19 12:45:00,53.6,53.0,29.72,NW,315,0.0,-999.0,98,-99.99,,,0.24,Acu-Link.com,2013-06-19 19:45:00,
2013-06-19 13:00:00,53.6,53.0,29.72,WNW,292,1.6,-999.0,98,-99.99,,,0.27,Acu-Link.com,2013-06-19 20:00:00,
2013-06-19 13:15:00,53.6,53.0,29.72,NW,315,1.1,-999.0,98,-99.99,,,0.31,Acu-Link.com,2013-06-19 20:15:00,
2013-06-19 13:30:00,53.6,53.0,29.71,WSW,247,2.0,-999.0,98,-99.99,,,0.35,Acu-Link.com,2013-06-19 20:30:00,
2013-06-19 13:45:00,53.6,53.0,29.72,SE,135,0.0,-999.0,98,-99.99,,,0.39,Acu-Link.com,2013-06-19 20:45:00,
2013-06-19 14:00:00,53.6,53.0,29.72,NW,315,0.0,-999.0,98,-99.99,,,0.43,Acu-Link.com,2013-06-19 21:00:00,
2013-06-19 14:16:00,53.6,53.0,29.71,SE,135,0.0,-999.0,98,-99.99,,,0.46,Acu-Link.com,2013-06-19 21:16:00,
2013-06-19 14:31:00,53.6,53.0,29.72,SW,225,0.0,-999.0,98,-99.99,,,0.51,Acu-Link.com,2013-06-19 21:31:00,
2013-06-19 14:46:00,53.6,53.0,29.71,NNE,22,1.6,-999.0,98,-99.99,,,0.53,Acu-Link.com,2013-06-19 21:46:00,
2013-06-19 15:01:00,55.4,54.8,29.70,WNW,292,0.0,-999.0,98,-99.99,,,0.56,Acu-Link.com,2013-06-19 22:01:00,
2013-06-19 15:16:00,55.4,54.8,29.71,WSW,247,1.1,-999.0,98,-99.99,,,0.58,Acu-Link.com,2013-06-19 22:16:00,
2013-06-19 15:32:00,53.6,53.0,29.71,West,270,0.0,-999.0,98,-99.99,,,0.58,Acu-Link.com,2013-06-19 22:32:00,
2013-06-19 15:47:00,53.6,53.0,29.72,East,90,1.1,-999.0,98,-99.99,,,0.60,Acu-Link.com,2013-06-19 22:47:00,
2013-06-19 16:02:00,53.6,53.0,29.71,South,180,0.0,-999.0,98,-99.99,,,0.61,Acu-Link.com,2013-06-19 23:02:00,
2013-06-19 16:17:00,53.6,53.0,29.72,NW,315,0.0,-999.0,98,-99.99,,,0.65,Acu-Link.com,2013-06-19 23:17:00,
2013-06-19 16:32:00,53.6,53.0,29.72,SSE,157,0.0,-999.0,98,-99.99,,,0.67,Acu-Link.com,2013-06-19 23:32:00,
2013-06-19 16:48:00,53.6,53.0,29.72,West,270,0.0,-999.0,98,-99.99,,,0.70,Acu-Link.com,2013-06-19 23:48:00,
2013-06-19 17:03:00,53.6,53.0,29.71,WSW,247,1.6,-999.0,98,-99.99,,,0.74,Acu-Link.com,2013-06-20 00:03:00,
2013-06-19 17:18:00,53.6,53.0,29.71,SSW,202,2.0,-999.0,98,-99.99,,,0.79,Acu-Link.com,2013-06-20 00:18:00,
2013-06-19 17:33:00,53.6,53.0,29.72,WSW,247,1.1,-999.0,98,-99.99,,,0.80,Acu-Link.com,2013-06-20 00:33:00,
2013-06-19 17:48:00,53.6,53.0,29.72,SW,225,0.0,-999.0,98,-99.99,,,0.82,Acu-Link.com,2013-06-20 00:48:00,
2013-06-19 18:04:00,53.6,53.0,29.72,SSW,202,1.6,-999.0,98,-99.99,,,0.83,Acu-Link.com,2013-06-20 01:04:00,
2013-06-19 18:19:00,53.6,53.0,29.73,SSE,157,0.0,-999.0,98,-99.99,,,0.88,Acu-Link.com,2013-06-20 01:19:00,
2013-06-19 18:34:00,51.8,51.3,29.72,South,180,1.6,-999.0,98,-99.99,,,0.89,Acu-Link.com,2013-06-20 01:34:00,
2013-06-19 18:49:00,51.8,51.3,29.73,SSW,202,2.0,-999.0,98,-99.99,,,0.91,Acu-Link.com,2013-06-20 01:49:00,
2013-06-19 19:04:00,51.8,51.3,29.74,NNE,22,0.0,-999.0,98,-99.99,,,0.92,Acu-Link.com,2013-06-20 02:04:00,
2013-06-19 19:19:00,51.8,51.3,29.75,SW,225,0.0,-999.0,98,-99.99,,,0.98,Acu-Link.com,2013-06-20 02:19:00,
2013-06-19 19:35:00,51.8,51.3,29.75,South,180,0.0,-999.0,98,-99.99,,,1.01,Acu-Link.com,2013-06-20 02:35:00,
2013-06-19 19:50:00,51.8,51.3,29.76,NE,45,0.0,-999.0,98,-99.99,,,1.04,Acu-Link.com,2013-06-20 02:50:00,
2013-06-19 20:05:00,51.8,51.3,29.77,ESE,112,0.0,-999.0,98,-99.99,,,1.07,Acu-Link.com,2013-06-20 03:05:00,
2013-06-19 20:20:00,51.8,51.3,29.77,East,90,0.0,-999.0,98,-99.99,,,1.13,Acu-Link.com,2013-06-20 03:20:00,
2013-06-19 20:35:00,51.8,51.3,29.76,ENE,67,0.0,-999.0,98,-99.99,,,1.18,Acu-Link.com,2013-06-20 03:35:00,
2013-06-19 20:51:00,51.8,51.3,29.75,East,90,0.0,-999.0,98,-99.99,,,1.20,Acu-Link.com,2013-06-20 03:51:00,
2013-06-19 21:06:00,51.8,51.3,29.76,SSW,202,0.0,-999.0,98,-99.99,,,1.21,Acu-Link.com,2013-06-20 04:06:00,
2013-06-19 21:21:00,51.8,51.3,29.76,South,180,0.0,-999.0,98,-99.99,,,1.22,Acu-Link.com,2013-06-20 04:21:00,
2013-06-19 21:52:00,51.8,51.3,29.77,ENE,67,0.0,-999.0,98,-99.99,,,1.24,Acu-Link.com,2013-06-20 04:52:00,
2013-06-19 22:07:00,51.8,51.3,29.77,ENE,67,0.0,-999.0,98,-99.99,,,1.26,Acu-Link.com,2013-06-20 05:07:00,
2013-06-19 22:22:00,51.8,51.3,29.76,ENE,67,0.0,-999.0,98,-99.99,,,1.30,Acu-Link.com,2013-06-20 05:22:00,
2013-06-19 22:37:00,51.8,51.3,29.77,ENE,67,0.0,-999.0,98,-99.99,,,1.31,Acu-Link.com,2013-06-20 05:37:00,
2013-06-19 22:52:00,51.8,51.3,29.77,ENE,67,0.0,-999.0,98,-99.99,,,1.32,Acu-Link.com,2013-06-20 05:52:00,
2013-06-19 23:07:00,51.8,51.3,29.77,ENE,67,0.0,-999.0,98,-99.99,,,1.33,Acu-Link.com,2013-06-20 06:07:00,
2013-06-19 23:23:00,51.8,51.3,29.77,ENE,67,0.0,-999.0,98,-99.99,,,1.39,Acu-Link.com,2013-06-20 06:23:00,
2013-06-19 23:38:00,51.8,51.3,29.77,ENE,67,0.0,-999.0,98,-99.99,,,1.40,Acu-Link.com,2013-06-20 06:38:00,
2013-06-19 23:53:00,51.8,51.3,29.76,ENE,67,0.0,-999.0,98,-99.99,,,1.40,Acu-Link.com,2013-06-20 06:53:00,